Location: Asheville, NC
(35.6000°N, 82.5500°W)
Time: 19:20:39
(UTC-04:00)

Vanguard 1 Rocket - Pass Details

Date: 20 January 2018
Orbit: 652 x 4225 km, 34.3° (Epoch: 27 May)

Event Time Altitude Azimuth Distance (km) Brightness Sun altitude
Rises 06:09:27 0° 229° (SW) 7,527 11.7 -17.8°
Reaches altitude 10° 06:15:32 10° 224° (SW) 5,978 11.2 -16.6°
Maximum altitude 06:30:32 46° 159° (SSE) 2,414 9.8 -13.6°
Drops below altitude 10° 06:38:30 10° 88° (E) 3,269 11.5 -12.1°
Sets 06:40:48 0° 82° (E) 3,947 12.0 -11.6°
